[[{"header":{"parameterUnit":"m.s-1","parameterCategory":1,"la1":30.2991,"la2":30.254,"lo1":-89.0895,"lo2":-89.0444,"dy":0.0017,"dx":0.0017,"nx":28,"ny":28,"refTime":"2024-08-01T03:00:00:Z","depth":0,"parameterNumber":2,"parameterNumberName":"U-component_of_WINDS"},"data":[0,0,0,0,0,0,0,0,0,0,0,0,0,0,0,0,0,0,0,0,0,0,0,0,0,0,0,0,0,0,0,0,0,0,0,0,0,0,0,0,0,0,0,0,0,0,0,0,0,0,0,0,0,0,0,0,0,0,1.4179,1.4178,0,1.4139,1.4139,1.4138,1.4109,1.4108,1.4108,1.4108,1.4068,1.4067,1.4066,0,0,0,0,0,0,0,0,0,0,0,0,0,1.4229,1.4228,1.4179,1.4178,1.4178,1.4139,1.4139,1.4138,1.4109,1.4108,1.4108,1.4108,1.4068,1.4067,1.4066,0,0,0,0,0,0,0,0,0,0,0,0,0,1.42,1.4228,1.4179,1.4158,1.4156,1.4139,1.4139,1.4138,1.4109,1.4108,1.4108,1.4108,1.4068,1.4067,1.4066,1.4066,0,0,1.4062,1.4061,0,0,0,0,0,0,0,0,1.4201,1.4198,1.4162,1.416,1.4157,1.4128,1.4142,1.4114,1.4109,1.4127,1.4108,1.4107,1.4088,1.4085,1.4079,1.4064,1.4063,1.4062,1.4061,1.4061,1.406,0,0,0,0,0,0,0,1.4203,1.42,1.4163,1.4161,1.4159,1.4151,1.4147,1.4136,1.411,1.4125,1.4123,1.4119,1.4087,1.408,1.4078,1.4062,1.4062,1.4061,1.406,1.406,1.4045,1.4045,0,0,0,0,0,0,1.4209,1.4201,1.4164,1.4162,1.4179,1.4151,1.4146,1.4138,1.411,1.4106,1.4119,1.4117,1.4082,1.4079,1.4076,1.4074,1.4061,1.4059,1.4059,1.4045,1.4045,1.4046,0,0,0,0,0,0,1.421,1.4206,1.4166,1.4181,1.4175,1.415,1.4142,1.4138,1.4131,1.4106,1.4101,1.4117,1.4082,1.4078,1.4069,1.4072,1.4059,1.4058,1.4044,1.4045,1.4045,1.407,0,0,0,0,0,0,1.4211,1.4206,1.4206,1.4181,1.4175,1.4159,1.4142,1.4137,1.4129,1.4126,1.4102,1.4098,1.4081,1.4071,1.4067,1.407,1.4057,1.4044,1.4045,1.4045,1.4069,1.4071,1.4073,0,0,0,0,0,1.4213,1.4215,1.4206,1.4202,1.4174,1.416,1.4156,1.4137,1.4129,1.4129,1.4112,1.4099,1.4073,1.407,1.4066,1.4068,1.4044,1.4044,1.4045,1.4068,1.4071,1.4073,0,0,0,0,0,0,1.4241,1.4211,1.4201,1.4195,1.418,1.4155,1.4153,1.4141,1.4127,1.4126,1.4102,1.4097,1.409,1.4079,1.4076,1.4067,1.4056,1.4056,1.4075,1.4077,1.408,1.4082,1.4056,0,0,0,0,0,1.4246,1.4237,1.4212,1.4208,1.4201,1.4179,1.4172,1.4158,1.4142,1.4135,1.4119,1.4103,1.4091,1.4084,1.4072,1.4067,1.4061,1.4067,1.4069,1.4072,1.4071,1.4067,1.4069,1.4048,1.4048,1.4048,0,0,1.4257,1.424,1.4235,1.4214,1.42,1.4191,1.4174,1.4165,1.4157,1.4134,1.4124,1.4111,1.4092,1.4085,1.4082,1.4075,1.4076,1.4073,1.4074,1.4073,1.4068,1.407,1.4072,1.4049,1.4049,1.4049,0,0,1.4272,1.4258,1.4253,1.4241,1.4221,1.4206,1.4205,1.4181,1.4172,1.4162,1.4144,1.4135,1.4115,1.4102,1.4093,1.4103,1.409,1.41,1.4112,1.4108,1.411,1.4111,1.4114,1.4115,1.41,1.41,1.41,0,1.4287,1.4273,1.4253,1.4245,1.4235,1.4214,1.4209,1.4197,1.4175,1.4169,1.4162,1.4137,1.4123,1.4112,1.4114,1.4108,1.4106,1.4102,1.4111,1.4112,1.4113,1.4115,1.4117,1.4102,1.4101,1.4101,1.4101,0,1.4293,1.4283,1.4281,1.426,1.425,1.4244,1.4223,1.4216,1.4203,1.4189,1.4179,1.4161,1.4144,1.4141,1.4129,1.4129,1.4125,1.4116,1.4104,1.4117,1.4118,1.4119,1.4103,1.4103,1.4103,1.4102,0,0,1.4322,1.429,1.429,1.4279,1.4256,1.4248,1.4241,1.4224,1.4218,1.4204,1.4196,1.418,1.4171,1.4161,1.4147,1.4144,1.4152,1.4134,1.4134,1.4137,1.4149,1.4156,1.4157,1.4143,1.4143,1.4143,1.415,0,1.4332,1.4317,1.4299,1.4291,1.4281,1.4261,1.4254,1.4239,1.4226,1.4215,1.42,1.4189,1.4178,1.4171,1.4168,1.4152,1.4154,1.4151,1.4136,1.4135,1.414,1.4158,1.4165,1.4172,1.4151,1.4151,1.4151,0,1.4342,1.4328,1.4318,1.4295,1.429,1.4285,1.4268,1.4259,1.4241,1.4232,1.4221,1.4206,1.4197,1.4187,1.4174,1.4173,1.4165,1.4157,1.4156,1.4153,1.4143,1.4154,1.4174,1.4175,1.4152,1.4152,1.4152,0,1.4363,1.4342,1.4333,1.4325,1.4299,1.4295,1.4284,1.4266,1.4257,1.4243,1.4237,1.4222,1.4214,1.4203,1.4184,1.4179,1.4173,1.4162,1.4164,1.4164,1.4162,1.4162,1.418,1.416,1.416,1.416,1.416,0,1.4375,1.437,1.4342,1.4337,1.433,1.4309,1.4303,1.429,1.4275,1.4266,1.4248,1.424,1.4217,1.4207,1.4192,1.4183,1.418,1.4171,1.4167,1.4172,1.4173,1.4166,1.4165,1.416,1.416,1.416,1.416,0,1.4397,1.4379,1.4367,1.4344,1.4337,1.4333,1.4313,1.4306,1.4292,1.4282,1.4278,1.4256,1.4242,1.4223,1.4204,1.4195,1.4187,1.4181,1.4193,1.419,1.4193,1.4192,1.4206,1.4206,1.4187,1.4187,1.4187,0,1.4405,1.4401,1.4376,1.4369,1.4359,1.4348,1.4339,1.4319,1.431,1.429,1.4286,1.4271,1.4258,1.4238,1.422,1.4205,1.4198,1.4204,1.4196,1.4201,1.4197,1.4197,1.4196,1.4206,1.4206,1.4206,1.4206,0,1.4422,1.4413,1.4401,1.4385,1.4375,1.4362,1.4348,1.4343,1.432,1.4311,1.4297,1.4288,1.4268,1.4253,1.4236,1.4225,1.4211,1.4209,1.4209,1.4213,1.4219,1.4215,1.4197,1.4209,1.4209,1.4208,1.4208,1.4208,1.4436,1.4431,1.4413,1.44,1.4387,1.4374,1.4367,1.4352,1.434,1.4323,1.4312,1.4298,1.4281,1.4256,1.4246,1.4235,1.4229,1.4229,1.4228,1.4228,1.4229,1.4222,1.4232,1.4232,1.4231,1.4231,1.4231,0,1.4451,1.4438,1.4426,1.4407,1.4397,1.4386,1.437,1.4362,1.435,1.4335,1.4323,1.4307,1.4293,1.4274,1.4258,1.4253,1.4247,1.425,1.4249,1.4247,1.4236,1.4237,1.4255,1.4255,1.4255,1.4255,1.4255,1.4255,1.4457,1.4447,1.4436,1.4419,1.4407,1.4393,1.4385,1.4373,1.4361,1.4344,1.4332,1.432,1.4303,1.4286,1.4273,1.4268,1.4262,1.4267,1.426,1.425,1.4247,1.4245,1.4247,1.4266,1.4266,1.4271,1.4271,1.4271]},{"header":{"parameterUnit":"m.s-1","parameterCategory":1,"la1":30.2991,"la2":30.254,"lo1":-89.0895,"lo2":-89.0444,"dy":0.0017,"dx":0.0017,"nx":28,"ny":28,"refTime":"2024-08-01T03:00:00:Z","depth":0,"parameterNumber":3,"parameterNumberName":"V-component_of_WINDS"},"data":[0,0,0,0,0,0,0,0,0,0,0,0,0,0,0,0,0,0,0,0,0,0,0,0,0,0,0,0,0,0,0,0,0,0,0,0,0,0,0,0,0,0,0,0,0,0,0,0,0,0,0,0,0,0,0,0,0,0,2.8222,2.8221,0,2.8163,2.8162,2.8162,2.8107,2.8107,2.8106,2.8105,2.8043,2.8042,2.8041,0,0,0,0,0,0,0,0,0,0,0,0,0,2.8285,2.8285,2.8222,2.8221,2.822,2.8163,2.8162,2.8161,2.8107,2.8107,2.8106,2.8105,2.8043,2.8042,2.8041,0,0,0,0,0,0,0,0,0,0,0,0,0,2.8245,2.8284,2.8222,2.8187,2.8183,2.8163,2.8162,2.8161,2.8108,2.8107,2.8106,2.8105,2.8044,2.8042,2.804,2.805,0,0,2.8036,2.8035,0,0,0,0,0,0,0,0,2.8248,2.8243,2.8193,2.8189,2.8185,2.8142,2.8161,2.8124,2.8108,2.8136,2.8105,2.8104,2.8076,2.8072,2.8063,2.8047,2.8045,2.8035,2.8034,2.8034,2.8033,0,0,0,0,0,0,0,2.825,2.8245,2.8198,2.8192,2.8187,2.8173,2.8166,2.8154,2.8112,2.8134,2.813,2.8123,2.8074,2.8065,2.8061,2.8044,2.8035,2.8034,2.8033,2.8032,2.8032,2.8033,0,0,0,0,0,0,2.8259,2.8248,2.82,2.8197,2.8215,2.8173,2.8165,2.8156,2.8112,2.8105,2.8124,2.8121,2.8068,2.8063,2.8059,2.8066,2.8034,2.8032,2.8031,2.8031,2.8032,2.8033,0,0,0,0,0,0,2.8261,2.8255,2.8203,2.8221,2.8213,2.8173,2.8163,2.8156,2.8146,2.8105,2.8097,2.8123,2.8067,2.8061,2.8053,2.8063,2.8032,2.803,2.803,2.8031,2.8033,2.8083,0,0,0,0,0,0,2.8263,2.8256,2.826,2.8222,2.8213,2.8199,2.8164,2.8155,2.8144,2.8139,2.8102,2.8094,2.8066,2.8055,2.8051,2.8061,2.8029,2.8029,2.803,2.8032,2.808,2.8086,2.8091,0,0,0,0,0,2.8265,2.8276,2.8261,2.8255,2.8217,2.8199,2.8194,2.8161,2.8145,2.8148,2.8122,2.8096,2.8063,2.8055,2.805,2.8059,2.8028,2.803,2.8032,2.8077,2.8085,2.809,0,0,0,0,0,0,2.8316,2.827,2.8253,2.8252,2.823,2.819,2.8193,2.817,2.8152,2.8148,2.8107,2.8099,2.8095,2.8076,2.8068,2.8066,2.8042,2.8043,2.8078,2.8085,2.809,2.8094,2.8028,0,0,0,0,0,2.8327,2.8318,2.8278,2.8281,2.8271,2.8234,2.8225,2.8202,2.8178,2.8168,2.8141,2.8117,2.8102,2.8092,2.8075,2.8077,2.8067,2.8081,2.8086,2.8091,2.8092,2.8091,2.8096,2.804,2.804,2.804,0,0,2.835,2.8324,2.8321,2.8291,2.8271,2.8261,2.8227,2.8218,2.821,2.8166,2.8157,2.8136,2.8107,2.8104,2.8101,2.8088,2.8105,2.8094,2.8098,2.8096,2.8093,2.8099,2.8103,2.8041,2.8041,2.8041,0,0,2.8387,2.8367,2.8367,2.8348,2.8319,2.8294,2.8294,2.8258,2.8243,2.8233,2.82,2.8189,2.8163,2.8144,2.8131,2.816,2.8135,2.8156,2.8183,2.8182,2.8187,2.819,2.82,2.8204,2.8157,2.8157,2.8157,0,2.8419,2.8403,2.8369,2.8363,2.835,2.8311,2.831,2.8293,2.826,2.8252,2.8238,2.8204,2.8182,2.8173,2.818,2.8171,2.8169,2.8159,2.8189,2.8192,2.8195,2.8204,2.8208,2.816,2.816,2.8159,2.8159,0,2.8444,2.8433,2.8437,2.8406,2.8394,2.8391,2.8355,2.8347,2.8325,2.8302,2.8291,2.8263,2.824,2.8237,2.8215,2.8224,2.8217,2.8197,2.8172,2.8204,2.8211,2.8215,2.8164,2.8163,2.8162,2.8161,0,0,2.851,2.8461,2.8463,2.8448,2.8414,2.8404,2.8399,2.8377,2.837,2.8349,2.8342,2.8321,2.8302,2.8287,2.8262,2.8262,2.8286,2.8241,2.824,2.825,2.8294,2.8309,2.8314,2.8269,2.827,2.827,2.8296,0,2.854,2.8528,2.8497,2.8494,2.8484,2.8447,2.8441,2.8419,2.8397,2.8384,2.836,2.8345,2.8322,2.8312,2.831,2.8284,2.8294,2.8281,2.8262,2.8262,2.827,2.8317,2.8333,2.8359,2.8299,2.8299,2.83,0,2.8573,2.8555,2.8551,2.8517,2.8511,2.8507,2.8484,2.8473,2.8447,2.843,2.8414,2.8387,2.8378,2.8356,2.8342,2.8334,2.8324,2.831,2.831,2.8306,2.8282,2.8314,2.8366,2.837,2.8304,2.8304,2.8304,0,2.8621,2.8595,2.859,2.8579,2.8538,2.8536,2.8519,2.8492,2.848,2.846,2.8452,2.8431,2.842,2.8403,2.8371,2.8358,2.8361,2.8336,2.8346,2.8347,2.8348,2.8348,2.8399,2.8343,2.8343,2.8343,2.8343,0,2.8658,2.8657,2.8611,2.8607,2.8605,2.8569,2.8567,2.8547,2.8523,2.8514,2.848,2.8472,2.8431,2.8418,2.8392,2.8384,2.8379,2.8365,2.8359,2.8368,2.837,2.836,2.8358,2.8344,2.8344,2.8344,2.8343,0,2.871,2.868,2.8671,2.8634,2.8624,2.8624,2.8591,2.8586,2.8562,2.8552,2.8547,2.8509,2.8492,2.8459,2.8432,2.8415,2.8413,2.8401,2.8422,2.8418,2.843,2.8429,2.8475,2.8479,2.8422,2.8423,2.8424,0,2.8735,2.8733,2.8696,2.8688,2.8673,2.866,2.8649,2.8614,2.8603,2.8573,2.8571,2.8551,2.8534,2.8508,2.8478,2.8458,2.8445,2.8463,2.8441,2.8451,2.8444,2.8444,2.8444,2.8467,2.8468,2.8469,2.8469,0,2.8782,2.8767,2.8752,2.8732,2.8719,2.8701,2.8682,2.8677,2.8637,2.8626,2.8609,2.8596,2.8569,2.855,2.8525,2.8506,2.8481,2.8476,2.8477,2.8486,2.8498,2.8491,2.8434,2.8475,2.8474,2.8474,2.8474,2.8473,2.882,2.8817,2.8791,2.8775,2.8757,2.8739,2.8732,2.8708,2.8693,2.8669,2.8649,2.8634,2.8607,2.8571,2.8554,2.854,2.8528,2.853,2.853,2.8531,2.8535,2.8501,2.8536,2.8535,2.8535,2.8535,2.8535,0,2.8865,2.8846,2.8832,2.8806,2.8794,2.8772,2.8749,2.874,2.8727,2.8704,2.8688,2.8668,2.8649,2.8618,2.8596,2.8592,2.8579,2.8587,2.8587,2.8583,2.8547,2.8548,2.8597,2.8597,2.8597,2.8597,2.8597,2.8597,2.8886,2.888,2.8862,2.8845,2.8826,2.8811,2.88,2.8783,2.8765,2.8744,2.8729,2.8709,2.8682,2.8659,2.864,2.8631,2.8625,2.8636,2.8624,2.8591,2.8585,2.8579,2.858,2.8635,2.8635,2.866,2.866,2.866]}]]